Wind_Speed
20 22 22 18 16 14 12 10 10 10 11 15 18 23 20 16 18 20 21 20 19 19 14 17 16 16 18 18 19 17 19 18 19 22 23 24 25 25 25 24 25 25 26 25
19 21 12 16 17 18 18 14 12 11 14 17 20 27 25 23 20 20 21 20 20 20 18 17 19 21 20 19 19 21 20 21 20 22 23 26 27 28 27 27 28 29 30 29
21 12 20 18 17 18 17 17 16 15 16 21 26 34 29 24 20 18 18 17 12 11 13 17 21 23 23 23 21 20 20 22 23 25 26 28 29 30 30 29 28 27 28 29
17 21 16 22 21 17 17 15 14 15 16 13 15 11 29 26 21 15 12 14 11 17 19 18 18 20 22 23 24 24 24 25 25 25 26 29 30 31 29 30 31 30 30 31
16 18 22 20 17 18 17 13 10 11 14 19 22 12 15 17 23 16 12 12 16 15 13 9 8 12 15 14 13 14 16 18 21 24 27 28 29 29 29 31 32 33 33 34
24 16 16 23 22 19 18 14 11 12 13 9 15 16 5 6 7 3 6 4 2 6 8 12 13 15 15 15 16 18 21 22 22 23 24 25 27 28 28 28 30 32 33 36
23 22 20 17 20 19 16 11 2 3 2 5 3 10 15 8 4 5 4 7 10 11 13 14 15 18 22 24 25 21 18 19 22 25 28 29 30 29 25 26 28 30 30 32
24 13 27 24 23 19 18 19 8 6 3 4 4 8 4 9 13 14 11 8 14 15 16 17 21 22 20 16 13 20 22 27 27 26 24 23 23 24 26 26 28 28 26 26
19 18 16 25 25 26 22 28 22 16 13 6 11 16 16 10 14 10 11 19 15 17 21 25 20 15 13 17 16 17 16 19 20 22 24 24 25 26 25 27 28 25 23 23
24 10 19 21 19 22 29 19 13 12 2 4 7 10 12 7 9 21 18 16 13 10 8 14 14 17 20 22 23 23 24 22 23 22 23 23 25 25 26 26 23 20 19 20
33 24 12 21 27 29 27 25 15 13 12 5 1 6 7 10 15 16 15 9 5 10 16 19 21 25 27 27 29 27 27 25 24 26 23 25 27 29 28 25 23 21 25 27
34 20 21 24 20 24 27 28 31 17 8 18 13 17 5 13 21 16 10 9 11 15 21 26 27 31 32 34 33 31 28 23 21 22 23 25 28 31 30 29 29 31 36 37
34 14 11 9 14 18 21 27 26 30 23 27 9 10 13 23 21 16 18 18 25 39 39 38 39 31 28 27 28 29 32 33 33 31 32 32 35 39 40 42 44 44 46 47
25 20 16 16 12 21 25 24 26 26 22 29 39 41 21 23 24 26 36 41 46 45 41 37 38 41 40 37 35 35 36 40 41 42 43 45 46 48 49 48 48 48 51 53
19 18 20 10 13 17 21 24 26 28 28 22 32 37 42 40 38 39 43 43 39 34 31 31 32 29 28 29 25 26 32 37 39 41 48 51 50 51 53 54 53 53 53 51
26 22 21 18 18 19 23 26 26 29 28 32 33 43 41 38 40 36 32 31 30 29 33 36 35 35 34 34 33 32 31 31 34 37 39 42 47 50 50 51 52 53 55 51
25 24 22 14 16 20 25 37 39 40 42 37 38 44 37 36 32 31 29 31 36 44 44 39 40 40 41 42 43 44 44 43 39 38 38 40 41 44 46 48 48 47 46 48
27 27 20 8 9 3 28 28 19 19 20 23 28 30 33 36 38 35 36 42 44 40 40 41 44 47 48 49 51 49 45 46 45 43 44 45 45 44 45 45 45 44 44 44
28 26 14 9 19 23 27 23 18 21 26 26 27 28 33 37 41 41 40 38 38 40 42 46 50 52 54 52 50 50 50 48 45 40 38 42 45 46 48 48 47 45 45 47
28 26 24 18 8 10 34 25 25 22 33 32 30 32 32 34 39 41 40 41 43 44 43 45 45 45 45 41 40 39 38 37 38 41 41 42 45 47 50 50 49 49 47 45
30 28 33 32 19 20 43 36 16 16 29 29 28 30 34 36 36 39 38 38 42 43 42 43 47 48 45 45 44 41 39 38 39 36 38 39 41 49 52 51 50 48 47 47
27 22 26 30 19 19 41 32 26 26 26 27 27 27 31 33 36 34 35 38 40 42 43 47 51 52 51 51 52 51 47 42 39 40 39 36 34 33 34 41 47 41 41 39
25 32 24 22 23 25 24 24 23 20 23 28 29 30 31 36 38 40 41 44 47 53 56 55 57 58 52 46 47 47 43 42 43 42 43 43 42 43 42 41 44 41 45 47
34 36 37 36 38 34 29 29 26 27 29 31 34 38 40 43 46 50 51 54 56 57 59 57 55 51 50 46 43 43 42 40 41 42 42 43 43 44 46 46 46 44 43 46
34 34 40 41 42 41 40 39 40 39 37 38 41 44 45 39 46 51 54 53 54 55 57 58 58 57 56 57 52 48 46 44 42 42 41 41 41 44 45 44 45 47 45 42
41 41 40 38 31 29 31 34 38 43 45 47 50 51 54 56 54 53 55 57 60 60 59 61 61 60 58 54 50 49 48 49 48 47 48 46 44 43 42 42 41 39 37 33
Wind_Direction
209 213 214 225 229 230 219 206 215 233 241 250 261 266 268 267 266 271 274 273 271 267 264 260 266 263 259 262 269 273 273 275 266 268 271 274 279 277 275 277 279 279 279 281
214 222 214 218 216 219 224 236 234 237 247 261 269 270 273 280 275 274 278 277 276 270 265 260 262 262 261 262 261 264 270 272 272 269 270 269 271 274 274 271 271 275 278 281
221 226 215 218 216 216 226 235 244 256 266 274 282 279 278 277 279 281 282 287 288 277 262 254 255 258 260 261 264 266 266 266 266 267 265 265 267 270 272 277 281 281 279 278
229 220 221 220 222 225 234 242 251 261 274 279 281 292 281 287 284 285 282 280 273 260 265 262 263 264 264 268 270 264 261 261 262 266 268 267 267 268 272 272 273 273 271 271
214 220 219 219 220 226 243 246 249 260 268 276 271 272 292 298 310 310 292 264 249 257 257 275 273 274 263 258 264 265 262 266 270 270 269 271 271 272 270 267 267 267 269 269
223 220 218 227 228 228 239 243 254 261 269 269 269 245 292 319 321 129 92 89 186 281 281 292 282 271 269 271 278 283 278 272 270 268 267 269 272 272 268 264 263 264 263 266
215 222 220 215 213 218 215 211 225 271 228 232 209 242 263 268 168 174 264 294 287 285 282 286 287 285 287 283 284 287 295 299 285 269 262 262 266 264 258 259 263 264 262 263
209 216 217 218 220 223 223 216 192 203 208 278 255 243 260 158 205 237 264 283 296 285 280 292 292 295 290 299 295 284 292 288 283 281 276 264 259 259 261 260 261 260 261 264
209 223 223 230 237 235 222 217 236 256 273 286 248 257 257 244 222 206 261 275 273 283 273 280 281 285 284 289 302 303 306 291 276 273 273 270 267 266 261 256 254 256 260 261
222 222 222 217 214 220 222 237 199 202 160 258 253 255 229 130 177 236 254 256 251 260 280 273 286 292 311 320 317 311 307 297 288 279 274 269 266 260 255 252 251 251 252 261
223 219 216 210 215 216 209 210 206 203 219 180 248 258 269 224 212 189 187 197 261 306 314 311 303 299 301 301 303 305 302 295 285 280 276 270 263 256 252 249 252 260 270 282
209 218 217 204 211 213 222 216 214 208 204 227 247 250 302 211 184 185 215 248 277 292 297 292 297 297 299 298 296 288 284 285 281 274 269 257 257 258 257 261 269 279 283 285
198 206 173 189 210 207 213 219 225 229 239 241 221 253 222 217 204 227 262 271 286 303 299 290 281 281 282 287 285 286 285 284 278 274 272 272 272 270 269 272 277 282 285 286
204 213 212 207 209 202 209 217 222 224 226 237 238 249 240 219 240 255 274 282 292 293 296 295 291 300 301 297 293 291 288 285 283 280 276 271 275 278 278 281 283 286 286 287
193 212 217 216 188 188 204 212 221 225 232 235 244 252 256 265 281 288 294 294 295 297 303 307 306 305 308 302 293 289 289 289 287 278 272 273 274 275 276 278 279 281 282 283
232 242 244 230 231 238 246 237 229 233 246 255 264 263 265 287 288 286 284 285 285 288 297 296 296 296 298 297 293 287 290 295 285 282 282 280 277 277 278 279 279 278 281 278
224 227 237 246 253 261 265 256 254 255 257 267 270 275 283 278 278 283 283 284 289 298 299 290 287 287 288 289 290 289 288 289 288 286 286 289 288 283 282 283 283 282 278 275
240 242 242 220 206 228 254 265 259 248 257 262 265 266 271 278 281 284 287 291 295 291 288 286 286 288 290 291 292 293 292 292 289 285 282 286 291 289 287 283 280 280 279 278
233 237 228 220 211 252 250 241 246 268 276 273 264 264 271 276 282 283 284 287 285 283 285 288 290 292 294 295 295 294 297 297 295 291 284 283 286 285 285 284 282 278 279 280
231 233 230 214 198 212 263 269 266 262 260 264 266 268 271 276 278 282 280 278 278 280 285 287 289 292 296 298 301 306 308 307 302 297 292 289 285 284 283 281 279 279 279 278
206 219 224 228 231 250 261 263 249 224 265 276 273 271 272 273 274 279 279 278 279 282 283 286 290 293 297 298 298 299 302 300 295 297 301 295 288 283 277 275 276 278 279 280
218 205 219 228 232 249 264 265 247 258 259 261 265 266 266 269 273 271 274 277 281 285 283 287 290 292 295 299 300 300 300 297 291 290 288 285 289 296 301 295 282 276 281 286
222 229 236 232 237 250 258 263 262 241 245 248 254 258 269 273 275 283 277 274 278 287 291 293 293 293 296 298 298 297 294 291 286 283 284 281 281 285 284 286 293 297 288 288
240 247 250 249 251 250 249 252 253 267 272 266 269 278 286 286 285 286 285 282 281 280 281 285 286 288 291 294 291 289 291 290 290 289 288 287 286 284 286 285 285 281 282 286
249 250 249 249 251 253 254 256 264 272 277 278 276 276 277 275 276 281 281 280 280 281 282 282 282 283 287 288 289 289 289 287 288 291 291 292 293 292 287 284 285 286 285 283
251 250 246 248 256 261 265 267 269 270 270 272 272 271 272 276 277 277 277 279 280 281 282 282 284 285 285 282 280 283 286 287 287 288 293 292 291 293 289 290 288 291 293 289
Height
3136 3138 3135 3142 3146 3146 3149 3150 3150 3151 3152 3153 3152 3152 3154 3156 3156 3157 3158 3158 3158 3158 3161 3160 3161 3162 3162 3162 3161 3162 3162 3164 3165 3164 3164 3164 3165 3165 3166 3167 3167 3167 3167 3168
3133 3134 3137 3140 3142 3143 3146 3147 3148 3149 3149 3150 3149 3146 3149 3150 3151 3152 3153 3154 3154 3154 3156 3157 3156 3156 3157 3157 3157 3157 3157 3158 3159 3159 3160 3158 3159 3158 3160 3161 3161 3161 3161 3161
3129 3134 3134 3138 3140 3141 3143 3144 3146 3147 3147 3146 3144 3140 3142 3144 3146 3147 3148 3148 3149 3149 3149 3150 3149 3149 3150 3151 3152 3152 3152 3152 3153 3153 3153 3153 3153 3153 3154 3155 3156 3156 3156 3156
3126 3129 3131 3134 3136 3139 3140 3142 3143 3144 3145 3144 3143 3137 3135 3139 3140 3143 3144 3143 3143 3144 3144 3144 3145 3145 3144 3145 3146 3146 3146 3146 3146 3147 3146 3147 3147 3147 3149 3149 3149 3149 3149 3149
3123 3126 3128 3130 3133 3136 3139 3140 3141 3141 3142 3141 3138 3143 3130 3134 3136 3137 3137 3137 3137 3139 3139 3139 3139 3139 3139 3139 3140 3140 3140 3141 3141 3141 3140 3140 3140 3141 3141 3142 3142 3142 3141 3141
3120 3122 3124 3126 3130 3132 3135 3138 3139 3139 3139 3136 3133 3137 3130 3133 3134 3134 3134 3134 3134 3135 3135 3135 3135 3136 3136 3136 3135 3135 3135 3134 3134 3133 3133 3134 3133 3133 3133 3133 3133 3133 3134 3132
3114 3117 3119 3123 3125 3127 3131 3135 3137 3139 3139 3132 3131 3132 3126 3132 3132 3133 3133 3133 3132 3132 3131 3131 3130 3130 3131 3131 3130 3129 3128 3126 3125 3125 3125 3126 3125 3124 3124 3125 3125 3125 3124 3124
3107 3113 3114 3116 3121 3124 3126 3129 3131 3138 3137 3129 3128 3123 3122 3126 3129 3130 3131 3129 3128 3126 3126 3127 3126 3125 3124 3124 3123 3122 3121 3121 3120 3119 3118 3117 3116 3117 3117 3117 3117 3117 3116 3116
3103 3106 3108 3111 3116 3121 3121 3122 3130 3129 3128 3129 3123 3121 3123 3124 3126 3126 3125 3123 3123 3124 3123 3122 3122 3122 3120 3119 3117 3115 3115 3114 3113 3112 3111 3111 3111 3110 3110 3110 3109 3109 3110 3110
3097 3102 3103 3106 3108 3111 3116 3120 3123 3125 3130 3131 3115 3115 3117 3118 3120 3122 3119 3119 3119 3119 3118 3116 3116 3116 3115 3114 3113 3111 3110 3109 3108 3106 3105 3104 3104 3103 3103 3103 3103 3102 3103 3103
3092 3095 3097 3100 3100 3104 3110 3111 3115 3117 3119 3117 3118 3110 3109 3114 3111 3113 3114 3114 3114 3113 3113 3113 3111 3110 3109 3108 3108 3106 3104 3104 3102 3101 3099 3099 3098 3097 3096 3096 3097 3095 3095 3096
3083 3089 3091 3095 3096 3100 3102 3103 3106 3108 3111 3111 3109 3104 3107 3108 3107 3109 3111 3110 3108 3107 3106 3107 3106 3104 3103 3102 3101 3101 3100 3099 3097 3096 3095 3093 3092 3091 3090 3090 3089 3086 3085 3084
3077 3082 3086 3090 3094 3094 3095 3097 3100 3103 3105 3102 3108 3098 3101 3103 3102 3103 3103 3104 3102 3102 3102 3102 3102 3101 3100 3099 3098 3095 3093 3092 3092 3090 3088 3086 3084 3083 3082 3080 3078 3076 3075 3073
3073 3077 3078 3080 3081 3086 3089 3091 3093 3096 3097 3094 3093 3092 3098 3098 3098 3098 3097 3097 3096 3095 3094 3093 3093 3092 3091 3091 3090 3088 3087 3085 3082 3080 3079 3077 3075 3073 3070 3068 3066 3065 3062 3059
3070 3072 3076 3077 3079 3082 3084 3087 3088 3088 3089 3089 3087 3086 3089 3093 3095 3094 3091 3090 3088 3087 3087 3084 3084 3083 3082 3081 3080 3078 3076 3074 3072 3070 3067 3064 3062 3059 3056 3054 3052 3049 3046 3044
3063 3067 3070 3074 3076 3079 3080 3082 3082 3082 3084 3083 3084 3079 3086 3088 3085 3083 3081 3081 3080 3078 3078 3077 3076 3075 3073 3072 3070 3069 3066 3064 3060 3057 3055 3051 3048 3045 3043 3040 3038 3035 3033 3030
3061 3063 3066 3068 3070 3072 3072 3067 3073 3075 3077 3080 3078 3078 3079 3076 3074 3075 3076 3074 3071 3068 3067 3066 3065 3062 3061 3059 3057 3055 3054 3052 3050 3047 3043 3040 3037 3033 3030 3027 3024 3022 3020 3017
3053 3057 3062 3064 3067 3068 3058 3060 3063 3066 3069 3070 3070 3070 3069 3068 3068 3068 3068 3064 3062 3059 3057 3056 3053 3052 3050 3047 3045 3042 3040 3037 3036 3035 3032 3028 3025 3022 3019 3016 3013 3010 3008 3006
3047 3050 3055 3059 3059 3055 3051 3054 3057 3056 3058 3061 3061 3063 3063 3062 3060 3060 3059 3055 3052 3049 3047 3044 3043 3041 3039 3037 3033 3031 3028 3025 3023 3020 3019 3017 3013 3010 3007 3004 3001 2998 2996 2994
3041 3045 3050 3051 3052 3052 3043 3048 3047 3050 3047 3050 3054 3054 3054 3054 3052 3053 3049 3046 3044 3042 3039 3035 3034 3032 3030 3027 3024 3021 3019 3016 3013 3010 3007 3004 3002 2999 2996 2993 2989 2986 2982 2979
3033 3037 3038 3041 3042 3039 3036 3039 3044 3045 3043 3041 3045 3047 3045 3044 3043 3041 3038 3036 3034 3031 3029 3026 3024 3021 3020 3016 3013 3011 3009 3006 3003 3000 2996 2993 2990 2987 2983 2980 2976 2973 2970 2967
3023 3028 3029 3033 3038 3035 3031 3030 3033 3034 3034 3035 3035 3036 3034 3033 3032 3031 3028 3026 3024 3022 3020 3017 3013 3012 3010 3005 3002 3000 2998 2995 2993 2990 2987 2983 2979 2977 2972 2969 2966 2961 2958 2954
3018 3017 3021 3023 3021 3025 3025 3024 3023 3025 3028 3028 3027 3026 3025 3023 3022 3020 3019 3017 3013 3009 3007 3004 3001 2999 2999 2995 2990 2988 2986 2983 2980 2976 2974 2971 2967 2964 2960 2958 2955 2950 2948 2945
3008 3012 3012 3015 3015 3017 3019 3018 3017 3017 3017 3019 3019 3017 3015 3013 3012 3009 3007 3006 3002 3000 2996 2992 2989 2987 2986 2984 2982 2977 2974 2971 2968 2964 2960 2957 2954 2950 2947 2945 2941 2938 2934 2931
3001 3002 3000 3001 3005 3008 3011 3013 3011 3009 3009 3008 3007 3006 3004 3001 3001 2998 2994 2992 2989 2986 2983 2980 2978 2976 2974 2972 2970 2966 2963 2959 2957 2953 2949 2945 2942 2938 2934 2930 2927 2925 2922 2918
2986 2988 2990 2991 2997 2998 3000 3002 3000 2998 2997 2997 2995 2994 2992 2989 2986 2983 2982 2979 2975 2972 2970 2967 2964 2961 2960 2957 2956 2953 2950 2948 2945 2942 2938 2933 2930 2926 2922 2917 2913 2909 2907 2905